User: anonymous   Login
Location: Newark
(53.2933°N, 6.3959°W)
Time: 14:26:47
(UTC+00:00)
Language:

Envisat - Orbit

View from above orbital plane
View from above orbital plane
View from above satellite
View from above satellite

Ground track
Ground track

The orbit data is extracted from the following two-line orbital elements,

1 27386U 02009A   20100.05063448  .00000004  00000-0  14693-4 0  9991
2 27386  98.1390 110.7418 0001409  90.4912 333.9366 14.37976660948642
Epoch (UTC): 09 April 2020 01:12:54
Eccentricity: 0.0001409
inclination: 98.1390°
perigee height: 764 km
apogee height: 766 km
right ascension of ascending node: 110.7418°
argument of perigee: 90.4912°
revolutions per day: 14.37976660
mean anomaly at epoch: 333.9366°
orbit number at epoch: 94864

The dashed part of the orbit path shows where the satellite is in the earth's shadow,  

DLR